Time,TemperatureF,DewpointF,PressureIn,WindDirection,WindDirectionDegrees,WindSpeedMPH,WindSpeedGustMPH,Humidity,HourlyPrecipIn,Conditions,Clouds,dailyrainin,SolarRadiationWatts/m^2,SoftwareType,DateUTC
2013-10-08 00:00:00,42.0,42.0,-100.00,South,180,1.0,-999.0,101,-99.99,,,-99.99,0.000000,,2013-10-08 04:00:00,
2013-10-08 00:43:00,42.0,42.0,-100.00,South,180,1.0,-999.0,101,-99.99,,,-99.99,0.000000,,2013-10-08 04:43:00,
2013-10-08 00:53:00,42.0,42.0,-100.00,South,180,1.0,-999.0,101,-99.99,,,-99.99,0.000000,,2013-10-08 04:53:00,
2013-10-08 01:00:00,43.0,43.0,-100.00,South,180,0.0,-999.0,101,-99.99,,,-99.99,0.000000,,2013-10-08 05:00:00,
2013-10-08 01:42:00,43.0,43.0,-100.00,South,180,0.0,-999.0,101,-99.99,,,-99.99,0.000000,,2013-10-08 05:42:00,
2013-10-08 01:53:00,43.0,43.0,-100.00,South,180,0.0,-999.0,101,-99.99,,,-99.99,0.000000,,2013-10-08 05:53:00,
2013-10-08 02:00:00,43.0,43.0,-100.00,SSE,157,1.0,-999.0,101,-99.99,,,-99.99,0.000000,,2013-10-08 06:00:00,
2013-10-08 02:42:00,43.0,43.0,-100.00,SSE,157,1.0,-999.0,101,-99.99,,,-99.99,0.000000,,2013-10-08 06:42:00,
2013-10-08 02:52:00,43.0,43.0,-100.00,SSE,157,1.0,-999.0,101,-99.99,,,-99.99,0.000000,,2013-10-08 06:52:00,
2013-10-08 03:00:00,45.0,45.0,-100.00,SE,135,2.0,-999.0,97,-99.99,,,-99.99,0.000000,,2013-10-08 07:00:00,
2013-10-08 03:42:00,45.0,45.0,-100.00,SE,135,2.0,-999.0,97,-99.99,,,-99.99,0.000000,,2013-10-08 07:42:00,
2013-10-08 03:52:00,45.0,45.0,-100.00,SE,135,2.0,-999.0,97,-99.99,,,-99.99,0.000000,,2013-10-08 07:52:00,
2013-10-08 04:00:00,47.0,44.0,-100.00,SSE,157,4.0,-999.0,89,-99.99,,,-99.99,0.000000,,2013-10-08 08:00:00,
2013-10-08 04:42:00,47.0,44.0,-100.00,SSE,157,4.0,-999.0,89,-99.99,,,-99.99,0.000000,,2013-10-08 08:42:00,
2013-10-08 04:52:00,47.0,44.0,-100.00,SSE,157,4.0,-999.0,89,-99.99,,,-99.99,0.000000,,2013-10-08 08:52:00,
2013-10-08 06:00:00,48.0,44.0,-100.00,SSE,157,4.0,-999.0,84,-99.99,,,-99.99,0.000000,,2013-10-08 10:00:00,
2013-10-08 06:42:00,48.0,44.0,-100.00,SSE,157,4.0,-999.0,84,-99.99,,,-99.99,0.000000,,2013-10-08 10:42:00,
2013-10-08 06:53:00,48.0,44.0,-100.00,SSE,157,4.0,-999.0,84,-99.99,,,-99.99,0.000000,,2013-10-08 10:53:00,
2013-10-08 08:00:00,47.0,44.0,-100.00,SE,135,3.0,-999.0,89,-99.99,,,-99.99,1.160000,,2013-10-08 12:00:00,
2013-10-08 08:42:00,47.0,44.0,-100.00,SE,135,3.0,-999.0,89,-99.99,,,-99.99,1.160000,,2013-10-08 12:42:00,
2013-10-08 08:52:00,47.0,44.0,-100.00,SE,135,3.0,-999.0,89,-99.99,,,-99.99,1.160000,,2013-10-08 12:52:00,
2013-10-08 09:00:00,48.0,46.0,-100.00,SSE,157,3.0,-999.0,89,-99.99,,,-99.99,82.360001,,2013-10-08 13:00:00,
2013-10-08 09:42:00,48.0,46.0,-100.00,SSE,157,3.0,-999.0,89,-99.99,,,-99.99,82.360001,,2013-10-08 13:42:00,
2013-10-08 09:52:00,48.0,46.0,-100.00,SSE,157,3.0,-999.0,89,-99.99,,,-99.99,82.360001,,2013-10-08 13:52:00,
2013-10-08 10:00:00,53.0,47.0,-100.00,SSE,157,5.0,-999.0,81,-99.99,,,-99.99,250.559998,,2013-10-08 14:00:00,
2013-10-08 10:42:00,53.0,47.0,-100.00,SSE,157,5.0,-999.0,81,-99.99,,,-99.99,250.559998,,2013-10-08 14:42:00,
2013-10-08 10:52:00,53.0,47.0,-100.00,SSE,157,5.0,-999.0,81,-99.99,,,-99.99,250.559998,,2013-10-08 14:52:00,
2013-10-08 11:00:00,57.0,49.0,-100.00,SSE,157,5.0,-999.0,73,-99.99,,,-99.99,410.640015,,2013-10-08 15:00:00,
2013-10-08 11:44:00,57.0,49.0,-100.00,SSE,157,5.0,-999.0,73,-99.99,,,-99.99,410.640015,,2013-10-08 15:44:00,
2013-10-08 11:53:00,57.0,49.0,-100.00,SSE,157,5.0,-999.0,73,-99.99,,,-99.99,410.640015,,2013-10-08 15:53:00,
2013-10-08 12:00:00,62.0,50.0,-100.00,SSE,157,5.0,-999.0,65,-99.99,,,-99.99,540.559998,,2013-10-08 16:00:00,
2013-10-08 12:42:00,62.0,50.0,-100.00,SSE,157,5.0,-999.0,65,-99.99,,,-99.99,540.559998,,2013-10-08 16:42:00,
2013-10-08 12:53:00,62.0,50.0,-100.00,SSE,157,5.0,-999.0,65,-99.99,,,-99.99,540.559998,,2013-10-08 16:53:00,
2013-10-08 13:00:00,66.0,51.0,-100.00,SSE,157,5.0,-999.0,58,-99.99,,,-99.99,627.559998,,2013-10-08 17:00:00,
2013-10-08 13:43:00,66.0,51.0,-100.00,SSE,157,5.0,-999.0,58,-99.99,,,-99.99,627.559998,,2013-10-08 17:43:00,
2013-10-08 13:52:00,66.0,51.0,-100.00,SSE,157,5.0,-999.0,58,-99.99,,,-99.99,627.559998,,2013-10-08 17:52:00,
2013-10-08 14:00:00,68.0,51.0,-100.00,SSE,157,6.0,-999.0,53,-99.99,,,-99.99,656.559998,,2013-10-08 18:00:00,
2013-10-08 14:42:00,68.0,51.0,-100.00,SSE,157,6.0,-999.0,53,-99.99,,,-99.99,656.559998,,2013-10-08 18:42:00,
2013-10-08 14:53:00,68.0,51.0,-100.00,SSE,157,6.0,-999.0,53,-99.99,,,-99.99,656.559998,,2013-10-08 18:53:00,
2013-10-08 16:00:00,72.0,48.0,-100.00,SSE,157,5.0,-999.0,42,-99.99,,,-99.99,546.359985,,2013-10-08 20:00:00,
2013-10-08 16:42:00,72.0,48.0,-100.00,SSE,157,5.0,-999.0,42,-99.99,,,-99.99,546.359985,,2013-10-08 20:42:00,
2013-10-08 16:52:00,72.0,48.0,-100.00,SSE,157,5.0,-999.0,42,-99.99,,,-99.99,546.359985,,2013-10-08 20:52:00,
2013-10-08 17:00:00,73.0,48.0,-100.00,SSE,157,4.0,-999.0,41,-99.99,,,-99.99,417.600006,,2013-10-08 21:00:00,
2013-10-08 17:44:00,73.0,48.0,-100.00,SSE,157,4.0,-999.0,41,-99.99,,,-99.99,417.600006,,2013-10-08 21:44:00,
2013-10-08 17:54:00,73.0,48.0,-100.00,SSE,157,4.0,-999.0,41,-99.99,,,-99.99,417.600006,,2013-10-08 21:54:00,